IW2LAO-13 Weather Reports


time (UTC)temp
F
wind
direction
speed
knots
gust
knots
rain 1hr
in
rain 24hr
in
rain mn
in
humidity
%
barometer
mb
20260507020257 52 60 2.6 6.1 0.00 0.80 0.02 87 1010.8
20260507015257 52 46 3.5 7.8 0.00 0.80 0.02 88 1010.8
20260507014259 52 58 2.6 4.3 0.00 0.80 0.02 88 1010.8
20260507013257 52 5 4.3 8.7 0.01 0.80 0.02 88 1010.6
20260507011333 52 101 2.6 3.5 0.02 0.80 0.02 88 1010.5
20260507005257 52 53 2.6 7.8 0.02 0.80 0.02 89 1010.6
20260507003255 52 51 2.6 7.0 0.01 0.80 0.01 87 1010.9
20260507001254 53 26 1.7 4.3 0.00 0.79 0.00 86 1010.8
20260507000255 53 33 5.2 9.6 0.00 0.79 0.00 85 1010.8
20260506235255 53 89 4.3 8.7 0.00 0.79 0.00 85 1010.7
20260506234255 52 101 6.1 9.6 0.00 0.79 0.00 86 1010.8
20260506233254 52 71 3.5 7.8 0.00 0.80 0.00 87 1010.8
20260506232254 52 53 3.5 8.7 0.00 0.80 0.00 87 1010.8
20260506231304 52 70 3.5 7.0 0.00 0.82 0.00 87 1010.9
20260506230307 52 87 2.6 6.1 0.00 0.82 0.00 88 1010.8
20260506225255 52 50 1.7 4.3 0.00 0.83 0.00 88 1010.9
20260506224255 53 26 4.3 9.6 0.00 0.84 0.00 85 1011.0
20260506223252 53 88 5.2 10.4 0.00 0.87 0.00 85 1010.9
20260506222252 53 98 3.5 8.7 0.00 0.87 0.00 85 1011.0
20260506220253 53 67 0.9 2.6 0.00 0.87 0.00 86 1011.1
20260506215255 53 80 1.7 2.6 0.00 0.87 0.87 85 1010.9
20260506214252 53 73 1.7 3.5 0.00 0.87 0.87 85 1010.8
20260506213251 53 71 3.5 6.1 0.00 0.87 0.87 86 1010.9
20260506212251 53 91 2.6 5.2 0.00 0.87 0.87 86 1010.9
20260506210252 53 72 2.6 7.8 0.00 0.87 0.87 84 1010.9
20260506205251 53 61 6.1 10.4 0.00 0.87 0.87 83 1010.8
20260506204252 53 107 5.2 10.4 0.00 0.87 0.87 84 1010.7
20260506202251 53 152 6.1 8.7 0.00 0.87 0.87 86 1010.7
20260506201247 53 148 4.3 11.3 0.00 0.87 0.87 86 1010.8
20260506200247 53 141 2.6 7.0 0.00 0.87 0.87 88 1010.6
20260506195247 53 76 2.6 6.1 0.02 0.87 0.87 88 1010.5
20260506194247 54 47 3.5 10.4 0.03 0.87 0.87 88 1010.5
20260506192247 55 85 3.5 7.0 0.08 0.87 0.87 93 1010.5
20260506191247 56 105 1.7 3.5 0.09 0.87 0.87 94 1010.3
20260506190247 55 30 0.9 3.5 0.10 0.87 0.86 93 1010.2
20260506185247 56 288 0.9 2.6 0.10 0.85 0.85 93 1010.3
20260506184246 56 259 0.9 2.6 0.09 0.83 0.83 93 1010.0
20260506183250 56 265 1.7 3.5 0.09 0.80 0.80 92 1009.8
20260506182245 56 124 2.6 7.0 0.12 0.79 0.78 92 1009.4
20260506181245 56 227 1.7 6.1 0.10 0.77 0.77 92 1009.4
20260506175246 56 61 1.7 6.1 0.08 0.75 0.75 91 1007.9
20260506174245 56 78 2.6 6.1 0.15 0.75 0.75 90 1007.8
20260506173245 57 96 2.6 7.8 0.12 0.71 0.70 88 1007.6
20260506172244 58 87 4.3 7.0 0.08 0.67 0.67 86 1007.6
20260506171244 58 94 4.3 9.6 0.08 0.67 0.67 87 1007.2
20260506170245 58 86 1.7 3.5 0.08 0.68 0.67 88 1006.9
20260506165242 59 51 2.6 6.1 0.08 0.68 0.66 85 1006.8
20260506164242 61 82 2.6 6.1 0.01 0.61 0.60 78 1006.5
20260506163244 62 69 2.6 7.0 0.00 0.61 0.59 74 1006.3
20260506160242 64 11 2.6 7.0 0.00 0.63 0.59 70 1006.4
20260506154240 64 71 2.6 6.1 0.00 0.65 0.59 70 1006.3
20260506153239 65 100 3.5 9.6 0.00 0.65 0.59 70 1006.4
20260506151244 64 91 3.5 8.7 0.00 0.65 0.59 70 1006.6
20260506150239 65 94 3.5 7.0 0.00 0.65 0.59 70 1006.7
20260506145233 65 44 3.5 7.0 0.00 0.65 0.59 69 1006.9
20260506144233 65 75 2.6 6.1 0.00 0.65 0.59 71 1007.0
20260506143234 64 355 3.5 8.7 0.00 0.65 0.59 72 1007.2
20260506142232 63 55 2.6 7.0 0.00 0.65 0.59 74 1007.5
20260506141232 62 5 3.5 7.8 0.00 0.65 0.59 76 1007.7
20260506140232 61 76 2.6 7.0 0.00 0.65 0.59 82 1007.9
20260506135234 60 53 3.5 7.8 0.00 0.65 0.59 81 1008.0
20260506133230 60 69 2.6 6.1 0.00 0.65 0.59 81 1008.1
20260506132230 60 53 2.6 7.8 0.00 0.65 0.59 85 1008.1
20260506131230 59 350 4.3 11.3 0.00 0.65 0.59 85 1008.1
20260506130230 59 36 6.1 12.2 0.00 0.65 0.59 85 1008.2
20260506125230 59 52 3.5 8.7 0.00 0.65 0.59 85 1008.4
20260506124229 58 64 2.6 7.0 0.00 0.65 0.59 89 1008.6
20260506123230 57 15 2.6 5.2 0.01 0.65 0.59 91 1008.9
20260506122228 56 90 1.7 5.2 0.02 0.65 0.59 92 1008.9
20260506121228 56 44 1.7 3.5 0.07 0.65 0.59 92 1008.9
20260506120229 56 12 0.9 2.6 0.11 0.65 0.59 93 1008.9
20260506115232 55 117 1.7 3.5 0.11 0.65 0.59 93 1009.0
20260506114228 55 220 0.9 2.6 0.11 0.65 0.59 93 1009.1
20260506113228 55 264 0.9 2.6 0.11 0.64 0.58 93 1009.1
20260506112229 55 240 2.6 4.3 0.13 0.63 0.57 93 1009.0
20260506111230 56 244 3.5 8.7 0.09 0.57 0.51 92 1008.9
20260506110229 56 257 1.7 7.8 0.06 0.54 0.48 92 1008.9
20260506105228 56 191 0.9 1.7 0.07 0.54 0.48 92 1008.9
20260506104228 56 317 0.9 1.7 0.07 0.54 0.48 92 1008.8
20260506103228 56 295 0.9 5.2 0.06 0.53 0.47 92 1008.8
20260506102228 56 233 3.5 7.8 0.03 0.50 0.44 92 1009.0
20260506100235 58 291 0.9 3.5 0.01 0.48 0.42 88 1008.5
20260506094227 58 81 2.6 5.2 0.00 0.49 0.41 87 1008.3
20260506092225 57 19 1.7 3.5 0.00 0.50 0.41 89 1008.5
20260506090226 57 5 1.7 3.5 0.00 0.51 0.41 92 1008.9
20260506085225 57 45 0.9 2.6 0.00 0.51 0.41 90 1008.8
20260506084224 57 102 2.6 5.2 0.02 0.51 0.41 89 1008.7
20260506083223 57 96 2.6 6.1 0.03 0.51 0.41 91 1008.7
20260506082224 56 86 2.6 7.0 0.05 0.51 0.41 92 1008.9
20260506081223 56 31 1.7 4.3 0.06 0.51 0.41 93 1008.9
20260506080223 55 9 2.6 4.3 0.08 0.51 0.41 93 1008.8
20260506073220 55 88 3.5 7.0 0.10 0.48 0.38 94 1009.1
20260506072220 55 94 2.6 6.1 0.12 0.46 0.36 94 1009.3
20260506071220 55 57 2.6 6.1 0.14 0.46 0.35 95 1009.4
20260506070219 55 68 1.7 3.5 0.14 0.43 0.33 95 1009.3
20260506062217 55 148 0.9 2.6 0.08 0.34 0.24 95 1009.6
20260506061218 55 128 0.9 1.7 0.08 0.31 0.20 95 1009.6
20260506060217 55 18 0.9 2.6 0.07 0.29 0.19 95 1009.6
20260506051214 55 63 1.7 5.2 0.06 0.24 0.13 96 1009.4
20260506050212 55 138 1.7 2.6 0.04 0.22 0.12 96 1009.6
20260506044211 55 274 0.0 0.9 0.01 0.19 0.09 95 1009.5
20260506042212 55 259 0.9 3.5 0.00 0.18 0.08 95 1009.1
20260506041213 55 134 2.6 6.1 0.00 0.18 0.08 95 1008.9
20260506040211 55 124 2.6 5.2 0.00 0.18 0.08 95 1008.8
20260506035213 55 110 2.6 6.1 0.00 0.18 0.08 96 1008.8
20260506034212 55 111 1.7 4.3 0.00 0.18 0.08 96 1008.7
20260506033211 55 109 1.7 3.5 0.00 0.18 0.08 96 1008.9
20260506032212 55 132 0.9 1.7 0.00 0.18 0.08 96 1009.4
20260506030210 55 140 0.9 2.6 0.00 0.18 0.08 96 1009.7
20260506025210 55 148 0.9 3.5 0.00 0.18 0.08 96 1009.7
20260506022209 55 175 0.0 0.0 0.00 0.18 0.08 96 1010.2
20260506021210 55 175 0.0 0.0 0.00 0.18 0.08 96 1010.2